Time,TemperatureF,DewpointF,PressureIn,WindDirection,WindDirectionDegrees,WindSpeedMPH,WindSpeedGustMPH,Humidity,HourlyPrecipIn,Conditions,Clouds,dailyrainin,SoftwareType,DateUTC
2013-08-30 00:04:00,69.4,68.8,29.88,West,270,0.0,-999.0,98,-99.99,,,0.00,Acu-Link.com,2013-08-30 04:04:00,
2013-08-30 00:19:00,69.1,68.5,29.88,SW,225,0.0,-999.0,98,-99.99,,,0.00,Acu-Link.com,2013-08-30 04:19:00,
2013-08-30 00:34:00,68.9,68.3,29.88,West,270,0.0,-999.0,98,-99.99,,,0.00,Acu-Link.com,2013-08-30 04:34:00,
2013-08-30 00:49:00,68.7,68.1,29.88,West,270,0.0,-999.0,98,-99.99,,,0.00,Acu-Link.com,2013-08-30 04:49:00,
2013-08-30 01:05:00,68.4,67.8,29.88,WNW,292,0.0,-999.0,98,-99.99,,,0.00,Acu-Link.com,2013-08-30 05:05:00,
2013-08-30 01:20:00,68.0,67.4,29.88,NNE,22,0.0,-999.0,98,-99.99,,,0.00,Acu-Link.com,2013-08-30 05:20:00,
2013-08-30 01:35:00,68.0,67.4,29.87,WNW,292,0.0,-999.0,98,-99.99,,,0.00,Acu-Link.com,2013-08-30 05:35:00,
2013-08-30 01:50:00,67.8,67.2,29.87,NNW,337,0.0,-999.0,98,-99.99,,,0.00,Acu-Link.com,2013-08-30 05:50:00,
2013-08-30 02:05:00,67.6,67.0,29.87,SSW,202,0.0,-999.0,98,-99.99,,,0.00,Acu-Link.com,2013-08-30 06:05:00,
2013-08-30 02:20:00,67.6,67.0,29.87,WSW,247,0.0,-999.0,98,-99.99,,,0.00,Acu-Link.com,2013-08-30 06:20:00,
2013-08-30 02:35:00,67.6,67.0,29.87,WSW,247,0.0,-999.0,98,-99.99,,,0.00,Acu-Link.com,2013-08-30 06:35:00,
2013-08-30 02:50:00,67.3,66.7,29.87,WSW,247,0.0,-999.0,98,-99.99,,,0.00,Acu-Link.com,2013-08-30 06:50:00,
2013-08-30 03:05:00,67.3,66.7,29.86,SW,225,0.0,-999.0,98,-99.99,,,0.00,Acu-Link.com,2013-08-30 07:05:00,
2013-08-30 03:21:00,66.9,66.3,29.87,West,270,0.0,-999.0,98,-99.99,,,0.00,Acu-Link.com,2013-08-30 07:21:00,
2013-08-30 03:36:00,66.9,66.3,29.87,West,270,0.0,-999.0,98,-99.99,,,0.00,Acu-Link.com,2013-08-30 07:36:00,
2013-08-30 03:51:00,66.6,66.0,29.87,North,0,0.0,-999.0,98,-99.99,,,0.00,Acu-Link.com,2013-08-30 07:51:00,
2013-08-30 04:06:00,66.4,65.8,29.87,North,0,0.0,-999.0,98,-99.99,,,0.00,Acu-Link.com,2013-08-30 08:06:00,
2013-08-30 04:22:00,66.4,65.8,29.87,West,270,0.0,-999.0,98,-99.99,,,0.00,Acu-Link.com,2013-08-30 08:22:00,
2013-08-30 04:37:00,66.2,65.6,29.86,West,270,0.0,-999.0,98,-99.99,,,0.00,Acu-Link.com,2013-08-30 08:37:00,
2013-08-30 04:52:00,66.2,65.6,29.87,ESE,112,0.0,-999.0,98,-99.99,,,0.00,Acu-Link.com,2013-08-30 08:52:00,
2013-08-30 05:07:00,66.0,65.4,29.86,West,270,0.0,-999.0,98,-99.99,,,0.00,Acu-Link.com,2013-08-30 09:07:00,
2013-08-30 05:23:00,65.8,65.2,29.86,WNW,292,0.0,-999.0,98,-99.99,,,0.00,Acu-Link.com,2013-08-30 09:23:00,
2013-08-30 05:38:00,65.7,65.1,29.87,WSW,247,0.0,-999.0,98,-99.99,,,0.00,Acu-Link.com,2013-08-30 09:38:00,
2013-08-30 05:53:00,65.5,64.9,29.86,WSW,247,0.0,-999.0,98,-99.99,,,0.00,Acu-Link.com,2013-08-30 09:53:00,
2013-08-30 06:08:00,65.1,64.5,29.86,West,270,0.0,-999.0,98,-99.99,,,0.00,Acu-Link.com,2013-08-30 10:08:00,
2013-08-30 06:23:00,65.1,64.5,29.86,South,180,0.0,-999.0,98,-99.99,,,0.00,Acu-Link.com,2013-08-30 10:23:00,
2013-08-30 06:39:00,64.9,64.3,29.87,WSW,247,0.0,-999.0,98,-99.99,,,0.00,Acu-Link.com,2013-08-30 10:39:00,
2013-08-30 06:54:00,64.6,63.7,29.86,SSE,157,0.0,-999.0,97,-99.99,,,0.00,Acu-Link.com,2013-08-30 10:54:00,
2013-08-30 07:09:00,64.6,63.4,29.87,NW,315,0.0,-999.0,96,-99.99,,,0.00,Acu-Link.com,2013-08-30 11:09:00,
2013-08-30 07:24:00,64.8,62.4,29.87,NNE,22,0.0,-999.0,92,-99.99,,,0.00,Acu-Link.com,2013-08-30 11:24:00,
2013-08-30 07:39:00,65.7,63.3,29.87,West,270,0.0,-999.0,92,-99.99,,,0.00,Acu-Link.com,2013-08-30 11:39:00,
2013-08-30 07:54:00,66.6,62.3,29.87,West,270,0.0,-999.0,86,-99.99,,,0.00,Acu-Link.com,2013-08-30 11:54:00,
2013-08-30 08:09:00,68.9,58.3,29.88,NNW,337,0.0,-999.0,69,-99.99,,,0.00,Acu-Link.com,2013-08-30 12:09:00,
2013-08-30 08:25:00,70.5,59.4,29.88,South,180,0.0,-999.0,68,-99.99,,,0.00,Acu-Link.com,2013-08-30 12:25:00,
2013-08-30 08:40:00,73.2,67.7,29.88,North,0,0.0,-999.0,83,-99.99,,,0.00,Acu-Link.com,2013-08-30 12:40:00,
2013-08-30 08:55:00,75.6,75.0,29.88,NNW,337,0.0,-999.0,98,-99.99,,,0.00,Acu-Link.com,2013-08-30 12:55:00,
2013-08-30 09:10:00,76.5,75.9,29.87,SE,135,2.2,-999.0,98,-99.99,,,0.00,Acu-Link.com,2013-08-30 13:10:00,
2013-08-30 09:25:00,76.1,75.5,29.86,SSE,157,2.7,-999.0,98,-99.99,,,0.00,Acu-Link.com,2013-08-30 13:25:00,
2013-08-30 09:40:00,77.5,76.9,29.87,ESE,112,3.7,-999.0,98,-99.99,,,0.00,Acu-Link.com,2013-08-30 13:40:00,
2013-08-30 09:55:00,78.8,78.2,29.86,South,180,2.2,-999.0,98,-99.99,,,0.00,Acu-Link.com,2013-08-30 13:55:00,
2013-08-30 10:10:00,79.0,78.4,29.86,SSW,202,2.2,-999.0,98,-99.99,,,0.00,Acu-Link.com,2013-08-30 14:10:00,
2013-08-30 10:25:00,79.7,79.1,29.87,WNW,292,1.7,-999.0,98,-99.99,,,0.00,Acu-Link.com,2013-08-30 14:25:00,
2013-08-30 10:41:00,81.0,80.4,29.87,SSW,202,4.2,-999.0,98,-99.99,,,0.00,Acu-Link.com,2013-08-30 14:41:00,
2013-08-30 10:56:00,81.3,80.7,29.85,SW,225,4.7,-999.0,98,-99.99,,,0.00,Acu-Link.com,2013-08-30 14:56:00,
2013-08-30 11:11:00,82.4,81.8,29.85,SW,225,3.7,-999.0,98,-99.99,,,0.00,Acu-Link.com,2013-08-30 15:11:00,
2013-08-30 11:26:00,82.8,82.2,29.85,WNW,292,4.7,-999.0,98,-99.99,,,0.00,Acu-Link.com,2013-08-30 15:26:00,
2013-08-30 11:41:00,83.5,82.9,29.85,South,180,2.7,-999.0,98,-99.99,,,0.00,Acu-Link.com,2013-08-30 15:41:00,
2013-08-30 11:56:00,84.6,84.0,29.84,South,180,6.3,-999.0,98,-99.99,,,0.00,Acu-Link.com,2013-08-30 15:56:00,
2013-08-30 12:11:00,84.7,84.1,29.84,NW,315,4.2,-999.0,98,-99.99,,,0.00,Acu-Link.com,2013-08-30 16:11:00,
2013-08-30 12:26:00,84.4,83.8,29.83,WNW,292,3.2,-999.0,98,-99.99,,,0.00,Acu-Link.com,2013-08-30 16:26:00,
2013-08-30 12:41:00,86.5,85.9,29.82,SW,225,5.3,-999.0,98,-99.99,,,0.00,Acu-Link.com,2013-08-30 16:41:00,
2013-08-30 12:57:00,86.4,85.8,29.82,South,180,3.7,-999.0,98,-99.99,,,0.00,Acu-Link.com,2013-08-30 16:57:00,
2013-08-30 13:12:00,86.9,86.3,29.82,NNW,337,4.7,-999.0,98,-99.99,,,0.00,Acu-Link.com,2013-08-30 17:12:00,
2013-08-30 13:27:00,86.4,85.8,29.81,South,180,6.8,-999.0,98,-99.99,,,0.00,Acu-Link.com,2013-08-30 17:27:00,
2013-08-30 13:42:00,87.3,86.0,29.81,WNW,292,3.2,-999.0,96,-99.99,,,0.00,Acu-Link.com,2013-08-30 17:42:00,
2013-08-30 13:57:00,86.0,85.4,29.79,WNW,292,5.3,-999.0,98,-99.99,,,0.00,Acu-Link.com,2013-08-30 17:57:00,
2013-08-30 14:12:00,87.8,84.5,29.79,WNW,292,2.7,-999.0,90,-99.99,,,0.00,Acu-Link.com,2013-08-30 18:12:00,
2013-08-30 14:27:00,86.5,85.9,29.80,West,270,3.7,-999.0,98,-99.99,,,0.00,Acu-Link.com,2013-08-30 18:27:00,
2013-08-30 14:42:00,86.9,85.6,29.79,West,270,2.7,-999.0,96,-99.99,,,0.00,Acu-Link.com,2013-08-30 18:42:00,
2013-08-30 14:57:00,88.7,85.0,29.78,WSW,247,7.3,-999.0,89,-99.99,,,0.00,Acu-Link.com,2013-08-30 18:57:00,
2013-08-30 15:13:00,88.7,84.7,29.78,WSW,247,4.7,-999.0,88,-99.99,,,0.00,Acu-Link.com,2013-08-30 19:13:00,
2013-08-30 15:28:00,87.8,84.5,29.78,West,270,5.8,-999.0,90,-99.99,,,0.00,Acu-Link.com,2013-08-30 19:28:00,
2013-08-30 15:43:00,88.7,83.2,29.77,ESE,112,8.9,-999.0,84,-99.99,,,0.00,Acu-Link.com,2013-08-30 19:43:00,
2013-08-30 15:58:00,89.1,82.9,29.78,SW,225,4.7,-999.0,82,-99.99,,,0.00,Acu-Link.com,2013-08-30 19:58:00,
2013-08-30 16:13:00,88.7,85.0,29.77,WSW,247,7.3,-999.0,89,-99.99,,,0.00,Acu-Link.com,2013-08-30 20:13:00,
2013-08-30 16:28:00,88.5,82.3,29.76,SW,225,5.3,-999.0,82,-99.99,,,0.00,Acu-Link.com,2013-08-30 20:28:00,
2013-08-30 16:43:00,89.6,82.6,29.76,WSW,247,6.8,-999.0,80,-99.99,,,0.00,Acu-Link.com,2013-08-30 20:43:00,
2013-08-30 16:58:00,88.7,83.6,29.76,NW,315,8.3,-999.0,85,-99.99,,,0.00,Acu-Link.com,2013-08-30 20:58:00,
2013-08-30 17:13:00,88.2,83.8,29.74,West,270,8.3,-999.0,87,-99.99,,,0.00,Acu-Link.com,2013-08-30 21:13:00,
2013-08-30 17:29:00,88.2,83.8,29.74,WSW,247,7.8,-999.0,87,-99.99,,,0.00,Acu-Link.com,2013-08-30 21:29:00,
2013-08-30 17:44:00,88.2,82.4,29.73,West,270,8.3,-999.0,83,-99.99,,,0.00,Acu-Link.com,2013-08-30 21:44:00,
2013-08-30 17:59:00,88.9,82.3,29.73,SSW,202,7.3,-999.0,81,-99.99,,,0.00,Acu-Link.com,2013-08-30 21:59:00,
2013-08-30 18:14:00,88.9,81.9,29.73,West,270,7.3,-999.0,80,-99.99,,,0.00,Acu-Link.com,2013-08-30 22:14:00,
2013-08-30 18:29:00,88.3,80.9,29.72,SSW,202,6.8,-999.0,79,-99.99,,,0.00,Acu-Link.com,2013-08-30 22:29:00,
2013-08-30 18:44:00,88.0,82.5,29.72,SW,225,4.7,-999.0,84,-99.99,,,0.00,Acu-Link.com,2013-08-30 22:44:00,
2013-08-30 18:59:00,86.9,82.9,29.72,South,180,5.3,-999.0,88,-99.99,,,0.00,Acu-Link.com,2013-08-30 22:59:00,
2013-08-30 19:14:00,85.6,83.0,29.72,SW,225,4.2,-999.0,92,-99.99,,,0.00,Acu-Link.com,2013-08-30 23:14:00,
2013-08-30 19:29:00,85.1,84.1,29.72,SE,135,3.2,-999.0,97,-99.99,,,0.00,Acu-Link.com,2013-08-30 23:29:00,
2013-08-30 19:45:00,83.7,83.1,29.71,SSE,157,1.7,-999.0,98,-99.99,,,0.00,Acu-Link.com,2013-08-30 23:45:00,
2013-08-30 20:00:00,82.0,81.4,29.71,West,270,1.7,-999.0,98,-99.99,,,0.00,Acu-Link.com,2013-08-31 00:00:00,
2013-08-30 20:15:00,81.0,80.4,29.71,SW,225,2.7,-999.0,98,-99.99,,,0.00,Acu-Link.com,2013-08-31 00:15:00,
2013-08-30 20:30:00,80.1,79.5,29.71,SW,225,1.7,-999.0,98,-99.99,,,0.00,Acu-Link.com,2013-08-31 00:30:00,
2013-08-30 20:45:00,79.2,78.6,29.72,WSW,247,1.1,-999.0,98,-99.99,,,0.00,Acu-Link.com,2013-08-31 00:45:00,
2013-08-30 21:00:00,78.3,77.7,29.73,SW,225,3.7,-999.0,98,-99.99,,,0.00,Acu-Link.com,2013-08-31 01:00:00,
2013-08-30 21:15:00,77.5,76.9,29.73,WSW,247,1.7,-999.0,98,-99.99,,,0.00,Acu-Link.com,2013-08-31 01:15:00,
2013-08-30 21:30:00,77.2,76.6,29.73,WSW,247,1.7,-999.0,98,-99.99,,,0.00,Acu-Link.com,2013-08-31 01:30:00,
2013-08-30 21:45:00,76.5,75.9,29.73,SSW,202,2.2,-999.0,98,-99.99,,,0.00,Acu-Link.com,2013-08-31 01:45:00,
2013-08-30 22:01:00,75.9,75.3,29.74,SW,225,1.7,-999.0,98,-99.99,,,0.00,Acu-Link.com,2013-08-31 02:01:00,
2013-08-30 22:16:00,75.0,74.4,29.73,WSW,247,0.0,-999.0,98,-99.99,,,0.00,Acu-Link.com,2013-08-31 02:16:00,
2013-08-30 22:31:00,74.1,73.5,29.73,SW,225,1.7,-999.0,98,-99.99,,,0.00,Acu-Link.com,2013-08-31 02:31:00,
2013-08-30 22:46:00,73.8,73.2,29.73,South,180,0.0,-999.0,98,-99.99,,,0.00,Acu-Link.com,2013-08-31 02:46:00,
2013-08-30 23:01:00,73.4,72.8,29.72,SSW,202,1.7,-999.0,98,-99.99,,,0.00,Acu-Link.com,2013-08-31 03:01:00,
2013-08-30 23:16:00,73.4,72.8,29.73,SW,225,1.7,-999.0,98,-99.99,,,0.00,Acu-Link.com,2013-08-31 03:16:00,
2013-08-30 23:31:00,73.6,73.0,29.72,SSW,202,1.7,-999.0,98,-99.99,,,0.00,Acu-Link.com,2013-08-31 03:31:00,
2013-08-30 23:46:00,73.8,73.2,29.71,South,180,1.7,-999.0,98,-99.99,,,0.00,Acu-Link.com,2013-08-31 03:46:00,